DateTime,Index
1990082406,0.0
1990082412,0.0
1990082418,0.0
1990082500,1225.0
1990082506,1600.0
1990082512,2025.0
1990082518,2500.0
1990082600,3025.0
1990082606,3600.0
1990082612,4225.0
1990082618,4900.0
1990082700,5625.0
1990082706,7225.0
1990082712,8100.0
1990082718,9025.0
1990082800,9025.0
1990082806,8100.0
1990082812,7225.0
1990082818,6400.0
1990082900,5625.0
1990082906,4900.0
1990082912,5625.0
1990082918,5625.0
1990083000,6400.0
1990083006,7225.0
1990083012,8100.0
1990083018,9025.0
1990083100,10000.0
1990083106,11025.0
1990083112,10000.0
1990083118,10000.0
1990090100,9025.0
1990090106,8100.0
1990090112,7225.0
1990090118,6400.0
1990090200,5625.0
1990090206,4900.0
1990090212,4225.0
1990090218,3600.0
1990090300,3025.0
1990090306,3025.0
